User: anonymous   Login
Location: NJAA Observatory
(40.6819°N, 74.8979°W)
Time: 20:57:32
(UTC-04:00)
Language:

Cosmos 1461 - Orbit

View from above orbital plane
View from above orbital plane
View from above satellite
View from above satellite

Ground track
Ground track

The orbit data is extracted from the following two-line orbital elements,

1 14064U 83044A   15185.94503279  .00001124  00000-0  11300-3 0  9999
2 14064 065.0022 329.0401 0118160 319.9603 039.2843 14.91622105616888
Epoch (UTC): 04 July 2015 22:40:50
Eccentricity: 0.0118160
inclination: 65.0022°
perigee height: 510 km
apogee height: 675 km
right ascension of ascending node: 329.0401°
argument of perigee: 319.9603°
revolutions per day: 14.91622105
mean anomaly at epoch: 39.2843°
orbit number at epoch: 61688

The dashed part of the orbit path shows where the satellite is in the earth's shadow,  

DLR